Tracking 23726 objects as of 22-Sep-2021
HD Live streaming from Space Station
objects crossing your sky now

STARLINK-1192

Track STARLINK-1192 now!
10-day predictions
STARLINK-1192 is classified as:


NORAD ID: 45180
Int'l Code: 2020-012C
Perigee: 552.8 km
Apogee: 555.9 km
Inclination: 53.1 °
Period: 95.6 minutes
Semi major axis: 6925 km
RCS: Unknown
Launch date: February 17, 2020
Source: United States (US)
Launch site: AIR FORCE EASTERN TEST RANGE (AFETR)
aabbcc
Your satellite tracking list
Your tracking list is empty




NASA's NSSDC Master Catalog

Two Line Element Set (TLE):
1 45180U 20012C   21265.12723249 -.00001070  00000-0 -52935-4 0  9997
2 45180  53.0532 162.0142 0002256  69.6098 290.5133 15.06394035 89227
Source of the keplerian elements: AFSPC